| time (UTC) | temp F | wind direction | speed MPH | gust MPH | rain 1hr in | rain 24hr in | rain mn in | humidity % | barometer mb |
| 20260505064557 | 56 | 0.0 | 0.0 | 0.00 | 0.00 | 0.00 | 84 | 1011.7 | |
| 20260505063517 | 56 | 0.0 | 0.0 | 0.00 | 0.00 | 0.00 | 83 | 1011.6 | |
| 20260505062517 | 56 | 0.0 | 0.0 | 0.00 | 0.00 | 0.00 | 82 | 1011.5 | |
| 20260505061517 | 56 | 0.0 | 0.0 | 0.00 | 0.00 | 0.00 | 82 | 1011.3 | |
| 20260505060517 | 57 | 0.0 | 0.0 | 0.00 | 0.00 | 0.00 | 81 | 1011.3 | |
| 20260505055537 | 57 | 0.0 | 0.0 | 0.00 | 0.00 | 0.00 | 80 | 1011.2 | |
| 20260505054517 | 58 | 0.0 | 0.0 | 0.00 | 0.00 | 0.00 | 79 | 1010.9 | |
| 20260505053517 | 58 | 0.0 | 0.0 | 0.00 | 0.00 | 0.00 | 80 | 1011.0 | |
| 20260505052517 | 58 | 0.0 | 0.0 | 0.00 | 0.00 | 0.00 | 78 | 1011.0 | |
| 20260505051517 | 59 | 0.0 | 0.0 | 0.00 | 0.00 | 0.00 | 77 | 1010.7 | |
| 20260505050517 | 59 | 0.0 | 0.0 | 0.00 | 0.00 | 0.00 | 77 | 1010.5 | |
| 20260505041517 | 61 | 0.0 | 0.0 | 0.00 | 0.00 | 0.00 | 72 | 1010.2 | |
| 20260505040517 | 61 | 0.0 | 0.0 | 0.00 | 0.00 | 0.00 | 72 | 1010.1 | |
| 20260505035517 | 62 | 0.0 | 0.0 | 0.00 | 0.00 | 0.00 | 72 | 1010.0 | |
| 20260505034517 | 63 | 0.0 | 0.0 | 0.00 | 0.00 | 0.00 | 67 | 1009.9 | |
| 20260505033557 | 64 | 0.0 | 0.0 | 0.00 | 0.00 | 0.00 | 69 | 1009.7 | |
| 20260505032517 | 64 | 0.0 | 0.0 | 0.00 | 0.00 | 0.00 | 65 | 1009.5 | |
| 20260505031516 | 65 | 0.0 | 0.0 | 0.00 | 0.00 | 0.00 | 65 | 1009.6 | |
| 20260505030517 | 66 | 0.0 | 0.0 | 0.00 | 0.00 | 0.00 | 63 | 1009.4 | |
| 20260505025516 | 67 | 0.0 | 0.0 | 0.00 | 0.00 | 0.00 | 60 | 1009.4 | |
| 20260505024517 | 67 | 0.0 | 0.0 | 0.00 | 0.00 | 0.00 | 58 | 1009.3 | |
| 20260505023557 | 68 | 0.0 | 0.0 | 0.00 | 0.00 | 0.00 | 58 | 1009.2 | |
| 20260505022516 | 69 | 0.0 | 0.0 | 0.00 | 0.00 | 0.00 | 53 | 1009.1 | |
| 20260505021516 | 69 | 0.0 | 0.0 | 0.00 | 0.00 | 0.00 | 54 | 1009.2 | |
| 20260505020517 | 70 | 0.0 | 0.0 | 0.00 | 0.00 | 0.00 | 51 | 1009.3 | |
| 20260505015516 | 71 | 0.0 | 0.0 | 0.00 | 0.00 | 0.00 | 49 | 1009.2 | |
| 20260505014517 | 71 | 0.0 | 0.0 | 0.00 | 0.00 | 0.00 | 50 | 1009.4 | |
| 20260505013516 | 72 | 0.0 | 0.0 | 0.00 | 0.00 | 0.00 | 49 | 1009.5 | |
| 20260505012516 | 73 | 0.0 | 0.0 | 0.00 | 0.00 | 0.00 | 53 | 1009.5 | |
| 20260505011518 | 73 | 0.0 | 0.0 | 0.00 | 0.00 | 0.00 | 52 | 1009.5 | |
| 20260505010557 | 74 | 0.0 | 0.0 | 0.00 | 0.00 | 0.00 | 49 | 1009.4 | |
| 20260505005516 | 75 | 0.0 | 0.0 | 0.00 | 0.00 | 0.00 | 48 | 1009.6 | |
| 20260505004517 | 76 | 0.0 | 2.0 | 0.00 | 0.00 | 0.00 | 46 | 1009.6 | |
| 20260505003557 | 76 | 0.0 | 0.0 | 0.00 | 0.00 | 0.00 | 46 | 1009.6 | |
| 20260505002516 | 77 | 0.0 | 0.0 | 0.00 | 0.00 | 0.00 | 47 | 1009.5 | |
| 20260505001516 | 79 | 0.0 | 0.0 | 0.00 | 0.00 | 0.00 | 46 | 1009.4 | |
| 20260505000516 | 81 | 0.0 | 0.0 | 0.00 | 0.00 | 0.00 | 45 | 1009.5 | |
| 20260504235556 | 81 | 0.0 | 0.0 | 0.00 | 0.00 | 0.00 | 44 | 1009.5 | |
| 20260504234516 | 82 | 0.0 | 0.0 | 0.00 | 0.00 | 0.00 | 43 | 1009.5 | |
| 20260504233516 | 82 | 0.0 | 0.0 | 0.00 | 0.00 | 0.00 | 44 | 1009.4 | |
| 20260504232516 | 82 | 0.0 | 1.0 | 0.00 | 0.00 | 0.00 | 43 | 1009.4 | |
| 20260504231516 | 82 | 0.0 | 1.0 | 0.00 | 0.00 | 0.00 | 41 | 1009.4 | |
| 20260504230521 | 83 | 0.0 | 1.0 | 0.00 | 0.00 | 0.00 | 43 | 1009.4 | |
| 20260504225712 | 82 | 0.0 | 1.0 | 0.00 | 0.00 | 0.00 | 45 | 1009.6 | |
| 20260504224516 | 83 | 0.0 | 3.0 | 0.00 | 0.00 | 0.00 | 41 | 1009.8 | |
| 20260504223516 | 83 | 0.0 | 2.0 | 0.00 | 0.00 | 0.00 | 41 | 1009.8 | |
| 20260504222516 | 83 | 0.0 | 2.0 | 0.00 | 0.00 | 0.00 | 38 | 1009.8 | |
| 20260504221516 | 83 | 0.0 | 2.0 | 0.00 | 0.00 | 0.00 | 39 | 1010.0 | |
| 20260504220516 | 83 | 0.0 | 1.0 | 0.00 | 0.00 | 0.00 | 36 | 1010.1 | |
| 20260504215516 | 83 | 0.0 | 1.0 | 0.00 | 0.00 | 0.00 | 42 | 1010.2 | |
| 20260504214556 | 82 | 0.0 | 1.0 | 0.00 | 0.00 | 0.00 | 42 | 1010.3 | |
| 20260504213516 | 82 | 0.0 | 3.0 | 0.00 | 0.00 | 0.00 | 42 | 1010.4 | |
| 20260504212516 | 81 | 0.0 | 2.0 | 0.00 | 0.00 | 0.00 | 44 | 1010.3 | |
| 20260504211521 | 80 | 270 | 1.0 | 4.0 | 0.00 | 0.00 | 0.00 | 50 | 1010.3 |
| 20260504210516 | 81 | 0.0 | 1.0 | 0.00 | 0.00 | 0.00 | 45 | 1010.4 | |
| 20260504205516 | 81 | 0.0 | 2.0 | 0.00 | 0.00 | 0.00 | 44 | 1010.5 | |
| 20260504204516 | 81 | 0.0 | 2.0 | 0.00 | 0.00 | 0.00 | 44 | 1010.5 | |
| 20260504203521 | 81 | 0.0 | 1.0 | 0.00 | 0.00 | 0.00 | 46 | 1010.5 | |
| 20260504202516 | 80 | 0.0 | 2.0 | 0.00 | 0.00 | 0.00 | 44 | 1010.6 | |
| 20260504201516 | 81 | 0.0 | 0.0 | 0.00 | 0.00 | 0.00 | 42 | 1010.6 | |
| 20260504200556 | 80 | 0.0 | 1.0 | 0.00 | 0.00 | 0.00 | 44 | 1010.5 | |
| 20260504195516 | 79 | 0.0 | 3.0 | 0.00 | 0.00 | 0.00 | 44 | 1010.5 | |
| 20260504194556 | 79 | 0.0 | 1.0 | 0.00 | 0.00 | 0.00 | 42 | 1010.4 | |
| 20260504193515 | 79 | 0.0 | 1.0 | 0.00 | 0.00 | 0.00 | 41 | 1010.6 | |
| 20260504192531 | 79 | 0.0 | 0.0 | 0.00 | 0.00 | 0.00 | 44 | 1010.6 | |
| 20260504170554 | 71 | 0.0 | 1.0 | 0.00 | 0.00 | 0.00 | 54 | 1011.0 | |
| 20260504150517 | 54 | 0.0 | 0.0 | 0.00 | 0.00 | 0.00 | 81 | 1010.1 | |
| 20260504140517 | 52 | 0.0 | 0.0 | 0.00 | 0.00 | 0.00 | 80 | 1009.8 | |
| 20260504130557 | 52 | 0.0 | 0.0 | 0.00 | 0.00 | 0.00 | 78 | 1009.4 | |
| 20260504110517 | 54 | 0.0 | 0.0 | 0.00 | 0.00 | 0.00 | 77 | 1009.4 | |
| 20260504081517 | 56 | 0.0 | 0.0 | 0.00 | 0.00 | 0.00 | 70 | 1009.4 | |
| 20260504080521 | 56 | 0.0 | 0.0 | 0.00 | 0.00 | 0.00 | 69 | 1009.5 |